Location: ????
(55.2778°N, 39.2433°E)
Time: 13:22:04
(UTC+00:00)

CZ-2C R/B - Pass Details

Date: 14 April 2024
Orbit: 704 x 904 km, 98.2° (Epoch: 23 May)

Event Time Altitude Azimuth Distance (km) Brightness Sun altitude
Rises 01:28:21 0° 10° (N) 3,178 6.8 -7.7°
Reaches altitude 10° 01:30:53 10° 358° (N) 2,277 5.8 -7.4°
Maximum altitude 01:35:00 27° 303° (WNW) 1,472 4.2 -6.9°
Drops below altitude 10° 01:39:16 10° 247° (WSW) 2,367 4.9 -6.3°
Enters shadow 01:39:54 - 244° (WSW) 2,582 5.0 -6.2°
